Tracking 31027 objects as of 19-Jul-2025
HD Live streaming from Space Station
objects crossing your sky now

STARLINK-5065

Track STARLINK-5065 now!
10-day predictions
STARLINK-5065 is classified as:


NORAD ID: 55641
Int'l Code: 2023-021P
Perigee: 577.1 km
Apogee: 581.2 km
Inclination: 70.0 °
Period: 96.1 minutes
Semi major axis: 6950 km
RCS: Unknown
Launch date: February 17, 2023
Source: United States (US)
Launch site: AIR FORCE WESTERN TEST RANGE (AFWTR)
Your satellite tracking list
FENGYUN 1C DEB
Track 1 satellite(s)




NASA's NSSDC Master Catalog

Two Line Element Set (TLE):
1 55641U 23021P   25199.33304430 -.00000160  00000-0 -56190-5 0  9990
2 55641  69.9999  55.4857 0002927 271.4546  88.6278 14.98333482133682
Source of the keplerian elements: AFSPC